カタログに戻る

QIANFAN-150

運用中通信PO
NORAD 69109·PAYLOAD·🇨🇳 China

打ち上げ May 17, 2026 から Wenchang Space Launch Site

Loading…

次のパス (今後24時間)

TLE

最新Source: Space-Track

元期: Sep 14, 2026, 21:53 UTC

1 69109U 26108F   26257.91190464  .00000112  00000-0  15438-3 0  9996
2 69109  89.0190  13.0571 0002267 108.9513 251.1884 13.51023670 16560

AllMySatでQIANFAN-150をリアルタイム追跡

Download on the App Store